Burlington, VT

10:57 AM EDT on August 21, 2017 (GMT -0400)
Burlington International

Weather History for KBTV - March, 2012

Change the Weather History Date:

Wednesday, March 28, 2012

  Actual Average Record
Temperature  
Mean Temperature 41 °F 36 °F  
Max Temperature 49 °F 45 °F 79 °F (1945)
Min Temperature 32 °F 27 °F -5 °F (1923)
Degree Days  
Heating Degree Days 24 29  
Month to date heating degree days 587 970  
Since 1 July heating degree days 5148 6380  
Cooling Degree Days 0 0  
Month to date cooling degree days 5 0  
Year to date cooling degree days 5 0  
Moisture  
Dew Point 24 °F    
Average Humidity 56    
Maximum Humidity 79    
Minimum Humidity 32    
Precipitation  
Precipitation 0.05 in 0.08 in 1.57 in (1919)
Month to date precipitation 0.98 1.99  
Year to date precipitation 3.83 5.81  
Snow  
Snow T in 0.40 in 10.50 in (1932)
Month to date snowfall 5.9 14.9  
Since 1 July snowfall 37.7 75.7  
Snow Depth 0.00 in    
Sea Level Pressure  
Sea Level Pressure 29.74 in    
Wind  
Wind Speed 11 mph (SSE)    
Max Wind Speed 28 mph    
Max Gust Speed 37 mph    
Visibility 10 miles    
Events Rain , Snow    
T = Trace of Precipitation, MM = Missing Value Source: NWS Daily Summary

Daily Weather History Graph

Daily Weather History Graph

Search for Another Location

Airport or City:

Trip Planner

Search our weather history database for the weather conditions in past years. The results will help you decide how hot, cold, wet, or windy it might be!

Date:

Astronomy

Mar. 28, 2012 Rise Set
Actual Time 6:40 AM EDT 7:15 PM EDT
Civil Twilight 6:10 AM EDT 7:44 PM EDT
Nautical Twilight 5:36 AM EDT 8:19 PM EDT
Astronomical Twilight 5:00 AM EDT 8:55 PM EDT
Moon 9:42 AM EDT (3/28) 12:27 AM EDT (3/28)
Length of Visible Light 13h 33m
Length of Day
12h 35m
Waxing Crescent, 30% of the Moon is Illuminated
Mar 28
Waxing Crescent
Mar 30
First Quarter
Apr 6
Full
Apr 13
Last Quarter
Apr 21
New

Hourly Weather History & Observations

Time (EDT) Temp. Windchill Dew Point Humidity Pressure Visibility Wind Dir Wind Speed Gust Speed Precip Events Conditions
12:54 AM 33.1 °F - 7.0 °F 34% 30.06 in 10.0 mi Calm Calm - N/A   Overcast
1:54 AM 34.0 °F - 8.1 °F 34% 30.10 in 10.0 mi Calm Calm - N/A   Overcast
2:54 AM 34.0 °F 26.6 °F 10.0 °F 37% 30.05 in 10.0 mi SSE 9.2 mph - N/A   Overcast
3:54 AM 35.6 °F 31.7 °F 15.8 °F 44% 30.00 in 10.0 mi SSE 4.6 mph - N/A   Overcast
4:31 AM 33.8 °F 24.8 °F 23.0 °F 65% 29.98 in 2.5 mi South 12.7 mph - 0.00 in Snow Light Snow
4:47 AM 33.8 °F 28.6 °F 24.8 °F 70% 29.97 in 8.0 mi SE 5.8 mph - 0.00 in Snow Light Snow
4:54 AM 33.1 °F 26.9 °F 26.1 °F 75% 29.97 in 10.0 mi SE 6.9 mph - 0.00 in   Overcast
5:54 AM 35.1 °F 27.9 °F 24.1 °F 64% 29.92 in 10.0 mi South 9.2 mph - N/A   Overcast
6:54 AM 34.0 °F 28.8 °F 24.1 °F 67% 29.86 in 10.0 mi ESE 5.8 mph - N/A   Overcast
7:54 AM 37.0 °F 30.4 °F 23.0 °F 57% 29.84 in 10.0 mi South 9.2 mph - N/A   Overcast
8:54 AM 37.9 °F 31.5 °F 19.9 °F 48% 29.79 in 9.0 mi South 9.2 mph 18.4 mph 0.00 in Snow Light Snow
9:54 AM 41.0 °F 33.9 °F 15.1 °F 35% 29.75 in 10.0 mi South 12.7 mph 19.6 mph 0.00 in   Overcast
10:54 AM 42.1 °F 34.9 °F 17.1 °F 37% 29.70 in 10.0 mi South 13.8 mph 20.7 mph 0.01 in   Mostly Cloudy
11:54 AM 43.0 °F 34.8 °F 17.1 °F 35% 29.65 in 10.0 mi South 18.4 mph 28.8 mph N/A   Overcast
12:54 PM 46.9 °F - 21.0 °F 36% 29.59 in 10.0 mi SSE 20.7 mph 33.4 mph N/A   Mostly Cloudy
1:54 PM 46.9 °F - 23.0 °F 39% 29.56 in 10.0 mi South 20.7 mph 28.8 mph N/A   Mostly Cloudy
2:54 PM 46.9 °F - 27.0 °F 46% 29.53 in 10.0 mi South 13.8 mph 24.2 mph N/A   Overcast
3:54 PM 46.4 °F 40.1 °F 28.4 °F 50% 29.50 in 10.0 mi South 15.0 mph 19.6 mph N/A   Overcast
4:54 PM 48.0 °F - 30.0 °F 50% 29.50 in 10.0 mi South 13.8 mph - N/A   Overcast
5:54 PM 48.9 °F - 30.9 °F 50% 29.50 in 10.0 mi South 15.0 mph 23.0 mph N/A   Overcast
6:54 PM 48.9 °F - 32.0 °F 52% 29.51 in 10.0 mi SSW 10.4 mph 18.4 mph N/A   Overcast
7:54 PM 45.0 °F 40.6 °F 37.0 °F 74% 29.56 in 8.0 mi NNW 8.1 mph - 0.01 in Rain Light Rain
8:54 PM 44.1 °F 40.8 °F 39.0 °F 82% 29.58 in 10.0 mi North 5.8 mph - 0.03 in   Light Drizzle
9:54 PM 43.0 °F 37.7 °F 37.9 °F 82% 29.60 in 10.0 mi North 9.2 mph - 0.00 in   Overcast
10:54 PM 41.0 °F 34.7 °F 36.0 °F 82% 29.61 in 10.0 mi North 10.4 mph - N/A   Overcast
11:54 PM 39.0 °F 31.4 °F 34.0 °F 82% 29.62 in 10.0 mi North 12.7 mph - N/A   Overcast